This demonstration page uses our WeatherBlox Daily Observations layout. Learn more.

Left ArrowRight Arrow

Hourly Observations for November 15, 2019

Temp ( °F °C ) Dew Point ( °F °C ) Humidity (%) Winds ( mph kmh ) Pressure ( in mb ) Visibility ( mi km ) Precip ( " mm )
12:53 am 00:53 Cloudy 56 13.3 46 7.8 70 70 Calm 30.13 1020 10 16 0.00 0.00
1:53 am 01:53 Cloudy 56 13.3 47 8.3 72 72 Calm 30.14 1021 10 16 0.00 0.00
2:53 am 02:53 Cloudy 55 12.8 46 7.8 72 72 Calm 30.15 1021 10 16 0.00 0.00
3:53 am 03:53 Mostly Cloudy 54 12.2 47 8.3 77 77 Calm 30.15 1021 10 16 0.00 0.00
4:53 am 04:53 Cloudy 54 12.2 46 7.8 75 75 Calm 30.17 1022 10 16 0.00 0.00
5:53 am 05:53 Cloudy 55 12.8 46 7.8 72 72 Calm 30.18 1022 10 16 0.00 0.00
6:53 am 06:53 Cloudy 55 12.8 47 8.3 74 74 Calm 30.19 1022 10 16 0.00 0.00
7:53 am 07:53 Cloudy 56 13.3 47 8.3 72 72 N 3 6 30.21 1023 10 16 0.00 0.00
8:53 am 08:53 Partly Cloudy 58 14.4 49 9.4 72 72 Calm 30.22 1023 10 16 0.00 0.00
9:53 am 09:53 Sunny 61 16.1 49 9.4 65 65 Calm 30.23 1024 10 16 0.00 0.00
10:53 am 10:53 Sunny 64 17.8 49 9.4 58 58 Calm 30.21 1023 10 16 0.00 0.00
11:53 am 11:53 Sunny 66 18.9 48 8.9 52 52 NE 3 6 30.19 1022 10 16 0.00 0.00
12:53 pm 12:53 Sunny 69 20.6 47 8.3 45 45 Calm 30.16 1021 10 16 0.00 0.00
1:53 pm 13:53 Sunny 71 21.7 46 7.8 41 41 N 8 13 30.14 1021 10 16 0.00 0.00
2:53 pm 14:53 Sunny 71 21.7 46 7.8 41 41 VRB 3 6 30.12 1020 10 16 0.00 0.00
3:53 pm 15:53 Sunny 71 21.7 45 7.2 39 39 Calm 30.12 1020 10 16 0.00 0.00
4:53 pm 16:53 Clear 66 18.9 46 7.8 49 49 Calm 30.12 1020 10 16 0.00 0.00
5:53 pm 17:53 Clear 61 16.1 46 7.8 58 58 NW 3 6 30.14 1021 10 16 0.00 0.00
6:53 pm 18:53 Clear 58 14.4 46 7.8 65 65 Calm 30.13 1020 10 16 0.00 0.00
7:53 pm 19:53 Clear 56 13.3 46 7.8 70 70 NNW 3 6 30.14 1021 10 16 0.00 0.00
8:53 pm 20:53 Clear 54 12.2 44 6.7 69 69 Calm 30.14 1021 10 16 0.00 0.00
9:53 pm 21:53 Clear 51 10.6 44 6.7 77 77 Calm 30.15 1021 10 16 0.00 0.00
10:53 pm 22:53 Clear 50 10 42 5.6 74 74 VRB 3 6 30.14 1021 10 16 0.00 0.00
11:53 pm 23:53 Clear 49 9.4 41 5 74 74 Calm 30.14 1021 10 16 0.00 0.00

Powered by AerisWeather